Flag for Germany Weather past 2 weeks in Rathenow, Brandenburg, Germany

Now
46 °F

Low clouds.


Feels Like: 42 °F
Forecast: 42 / 54 °F
Wind: 6 mph from Southeast

Location: Neuruppin

Current Time: Oct 24, 2014 at 8:07:13 PM

Latest Report: Oct 24, 2014 at 7:00 PM


Visibility: 5 mi

Pressure: 30.21 "Hg

Humidity: 93%

Dew point: 44 °F

Location of RathenowLocation

Historic Weather in Rathenow — Graph

°F

Rathenow temperature yesterday

Maximum temperature yesterday: 54 °F (at 2:00 PM)
Minimum temperature yesterday: 50 °F (at 1:00 AM)
Average temperature yesterday: 52 °F

Past Weeks' High & Low Weather Summary

 TemperatureHumidityPressure
High71 °F (Oct 19, 3:00 PM)100% (Oct 15, 8:00 AM)30.27 "Hg (Oct 15, 8:00 AM)
Low46 °F (Oct 24, 7:00 PM)67% (Oct 10, 2:00 PM)29.44 "Hg (Oct 21, 9:00 PM)
Average55 °F91%29.89 "Hg
* Reported Oct 9 7:00 PM — Oct 24 7:00 PM, Rathenow, Weather by CustomWeather, © 2014

Note: Actual official high and low records may vary slightly from our data, if they occured in-between our weather recording intervals... More about our weather records

Advertising

Rathenow weather history for previous 24 hours

 ConditionsComfort  
Time TempWeatherWind HumidityBarometerVisibility
7:00 PM
Oct 24
46 °FLow clouds.6 mph93%30.21 "Hg5 mi
6:00 PM48 °FLow clouds.8 mph92%30.22 "Hg6 mi
4:00 PM49 °FLow clouds.6 mph87%30.22 "Hg6 mi
3:00 PM50 °FOvercast.6 mph88%30.23 "Hg6 mi
2:00 PM50 °FLow clouds.6 mph89%30.24 "Hg6 mi
1:00 PM50 °FLow clouds.6 mph91%30.26 "Hg7 mi
12:00 PM49 °FLow clouds.6 mph92%30.27 "Hg6 mi
10:00 AM48 °FLow clouds.7 mph95%30.26 "Hg4 mi
9:00 AM49 °FLow clouds.7 mph95%30.25 "Hg3 mi
8:00 AM49 °FLow clouds.7 mph94%30.24 "Hg6 mi
7:00 AM49 °FLow clouds.5 mph93%30.24 "Hg6 mi
6:00 AM49 °FLow clouds.3 mph94%30.24 "Hg6 mi
5:00 AM49 °FLow clouds.1 mph94%30.23 "Hg6 mi
4:00 AM50 °FLow clouds.5 mph94%30.24 "Hg6 mi
3:00 AM50 °FOvercast.5 mph91%30.24 "Hg6 mi
2:00 AM50 °FOvercast.5 mph91%30.24 "Hg6 mi
1:00 AM50 °FOvercast.2 mph92%30.24 "Hg6 mi
12:00 AM50 °FLow clouds.2 mph92%30.24 "Hg6 mi
10:00 PM
Oct 23
50 °FOvercast.2 mph93%30.24 "Hg6 mi
9:00 PM50 °FLow clouds.2 mph94%30.23 "Hg5 mi
8:00 PM51 °FOvercast.2 mph93%30.22 "Hg5 mi
Weather by CustomWeather, © 2014

See weather overviewHow to use our weather pages